Вернуться в каталог

ATLAS 5 CENTAUR DEB

LostHEO
NORAD 46639·DEBRIS·🇺🇸 United States

Запущен Sep 17, 2014 с Cape Canaveral Space Force Station

Loading…

Ближайшие Пролёты (ближайшие 24 часа)

TLE

УстаревшееSource: Space-Track

Эпоха: Jul 19, 2023, 08:55 UTC

1 46639U 14055CP  23200.37193338 -.00000063  00000-0  00000+0 0  9996
2 46639  20.6743 244.6710 4716579 350.7325   3.0924  1.88259195 19095

Отслеживайте ATLAS 5 CENTAUR DEB в реальном времени с AllMySat

Download on the App Store